[[{"header":{"parameterUnit":"m.s-1","parameterCategory":2,"la1":30.2991,"la2":30.254,"lo1":-89.0895,"lo2":-89.0444,"dy":0.0017,"dx":0.0017,"nx":28,"ny":28,"refTime":"2024-04-28T03:00:00:Z","depth":"0","parameterNumber":2,"parameterNumberName":"U-component_of_CURRENTS"},"data":[0,0,0,0,0,0,0,0,0,0,0,0,0,0,0,0,0,0,0,0,0,0,0,0,0,0,0,0,0,0,0,0,0,0,0,0,0,0,0,0,0,0,0,0,0,0,0,0,0,0,0,0,0,0,0,0,0,0,-0.2468,-0.2468,0,-0.2456,-0.2455,-0.2455,-0.2458,-0.2459,-0.2459,-0.246,-0.2401,-0.2398,-0.2396,0,0,0,0,0,0,0,0,0,0,0,0,0,-0.2422,-0.2423,-0.2468,-0.2468,-0.2468,-0.2456,-0.2455,-0.2455,-0.2458,-0.2459,-0.2459,-0.246,-0.2401,-0.2399,-0.2396,0,0,0,0,0,0,0,0,0,0,0,0,0,-0.2425,-0.2423,-0.2468,-0.2472,-0.2472,-0.2456,-0.2455,-0.2454,-0.2458,-0.2459,-0.2459,-0.246,-0.2402,-0.2399,-0.2396,-0.2357,0,0,-0.2386,-0.2384,0,0,0,0,0,0,0,0,-0.2425,-0.2427,-0.2471,-0.2471,-0.2472,-0.2463,-0.2417,-0.2421,-0.2457,-0.2459,-0.246,-0.2461,-0.2419,-0.2414,-0.2405,-0.2354,-0.2352,-0.2386,-0.2384,-0.2382,-0.2381,0,0,0,0,0,0,0,-0.2425,-0.2427,-0.2459,-0.2471,-0.2472,-0.2449,-0.2451,-0.2418,-0.243,-0.2459,-0.246,-0.2465,-0.2419,-0.2408,-0.2403,-0.2351,-0.2386,-0.2383,-0.2381,-0.238,-0.2325,-0.2325,0,0,0,0,0,0,-0.2438,-0.2427,-0.2459,-0.2459,-0.2455,-0.245,-0.2452,-0.2461,-0.2431,-0.2429,-0.2464,-0.2465,-0.2413,-0.2407,-0.2401,-0.2457,-0.2382,-0.2379,-0.2377,-0.2324,-0.2325,-0.2326,0,0,0,0,0,0,-0.2437,-0.2441,-0.246,-0.2445,-0.2447,-0.2451,-0.2461,-0.2461,-0.2459,-0.2437,-0.2433,-0.2464,-0.2414,-0.2406,-0.2385,-0.2451,-0.2378,-0.2375,-0.2324,-0.2325,-0.2325,-0.2502,0,0,0,0,0,0,-0.2436,-0.2441,-0.2441,-0.2447,-0.2448,-0.248,-0.2461,-0.246,-0.2462,-0.2463,-0.2434,-0.243,-0.2414,-0.239,-0.2382,-0.2445,-0.2372,-0.2323,-0.2324,-0.2325,-0.2496,-0.2509,-0.252,0,0,0,0,0,-0.2434,-0.2443,-0.2441,-0.2445,-0.2453,-0.2482,-0.2481,-0.2482,-0.2461,-0.2478,-0.2446,-0.2431,-0.2391,-0.2387,-0.2377,-0.2442,-0.2323,-0.2324,-0.2325,-0.249,-0.2506,-0.252,0,0,0,0,0,0,-0.2418,-0.2444,-0.2443,-0.2457,-0.248,-0.2485,-0.2491,-0.2482,-0.2467,-0.2462,-0.2426,-0.2419,-0.2432,-0.2388,-0.2385,-0.2422,-0.2358,-0.2357,-0.2487,-0.2502,-0.2514,-0.2553,-0.237,0,0,0,0,0,-0.2415,-0.243,-0.2456,-0.2465,-0.2481,-0.248,-0.2484,-0.2494,-0.2486,-0.248,-0.2463,-0.2435,-0.2425,-0.2424,-0.2403,-0.2409,-0.2392,-0.2442,-0.2455,-0.2466,-0.2487,-0.2505,-0.2523,-0.2329,-0.2329,-0.2329,0,0,-0.2403,-0.2425,-0.2428,-0.2463,-0.2473,-0.2534,-0.2485,-0.2511,-0.2564,-0.2473,-0.2517,-0.2473,-0.243,-0.2459,-0.2461,-0.2436,-0.2511,-0.2467,-0.2478,-0.2493,-0.2509,-0.2528,-0.2545,-0.233,-0.233,-0.233,0,0,-0.2432,-0.242,-0.2464,-0.25,-0.2541,-0.2555,-0.2568,-0.2588,-0.26,-0.2621,-0.258,-0.257,-0.2545,-0.2552,-0.2543,-0.2596,-0.257,-0.2584,-0.2694,-0.2712,-0.273,-0.2745,-0.2761,-0.2777,-0.2599,-0.26,-0.26,0,-0.2421,-0.2491,-0.2479,-0.2554,-0.2596,-0.2577,-0.2657,-0.267,-0.2683,-0.2698,-0.2662,-0.2642,-0.2604,-0.2652,-0.2678,-0.2634,-0.263,-0.2654,-0.2735,-0.2749,-0.2762,-0.2774,-0.2789,-0.2608,-0.2607,-0.2606,-0.2606,0,-0.2505,-0.257,-0.26,-0.2697,-0.2734,-0.2792,-0.2832,-0.2861,-0.2854,-0.2865,-0.2891,-0.2831,-0.282,-0.2815,-0.2766,-0.284,-0.2804,-0.2749,-0.2715,-0.2794,-0.28,-0.2812,-0.2621,-0.2618,-0.2615,-0.2613,0,0,-0.2467,-0.2631,-0.2646,-0.2725,-0.2818,-0.2858,-0.2952,-0.3027,-0.3072,-0.3074,-0.3127,-0.3111,-0.3053,-0.3035,-0.2974,-0.2994,-0.3077,-0.2921,-0.2918,-0.2968,-0.3127,-0.3105,-0.3115,-0.3043,-0.3045,-0.3048,-0.3102,0,-0.2545,-0.272,-0.2778,-0.2932,-0.3024,-0.3057,-0.3142,-0.3198,-0.3212,-0.3252,-0.3215,-0.3219,-0.3146,-0.3122,-0.3144,-0.3068,-0.3114,-0.3067,-0.3015,-0.3014,-0.3011,-0.313,-0.3091,-0.3137,-0.3113,-0.3115,-0.3117,0,-0.2618,-0.2732,-0.2905,-0.307,-0.3108,-0.3182,-0.3289,-0.3361,-0.3415,-0.3421,-0.3432,-0.3379,-0.3393,-0.3304,-0.3297,-0.3269,-0.3229,-0.3186,-0.3185,-0.3114,-0.3015,-0.3047,-0.3159,-0.3129,-0.3135,-0.3133,-0.3132,0,-0.261,-0.2815,-0.2954,-0.3013,-0.319,-0.325,-0.3319,-0.3398,-0.3447,-0.3503,-0.352,-0.3532,-0.3498,-0.3479,-0.3376,-0.3344,-0.3365,-0.3298,-0.3262,-0.3258,-0.319,-0.3176,-0.3293,-0.3342,-0.3342,-0.3341,-0.3341,0,-0.2678,-0.2786,-0.2954,-0.3031,-0.3154,-0.3261,-0.3361,-0.3429,-0.3509,-0.3561,-0.3576,-0.359,-0.3538,-0.3521,-0.345,-0.3398,-0.3426,-0.3323,-0.329,-0.3248,-0.3239,-0.3174,-0.3173,-0.3343,-0.3343,-0.3343,-0.3342,0,-0.2659,-0.2789,-0.2934,-0.3112,-0.3159,-0.3227,-0.3363,-0.3427,-0.3512,-0.3576,-0.3591,-0.3635,-0.3611,-0.357,-0.352,-0.3473,-0.3398,-0.3408,-0.3363,-0.3326,-0.326,-0.3269,-0.3321,-0.324,-0.34,-0.34,-0.34,0,-0.2675,-0.2749,-0.2934,-0.2996,-0.3073,-0.3185,-0.3258,-0.3392,-0.3451,-0.3582,-0.36,-0.3629,-0.3614,-0.3572,-0.3508,-0.3452,-0.3391,-0.3399,-0.3339,-0.3303,-0.3288,-0.3249,-0.3173,-0.3317,-0.3317,-0.3316,-0.3316,0,-0.2662,-0.271,-0.2827,-0.2945,-0.3032,-0.3129,-0.3236,-0.3286,-0.3433,-0.3498,-0.3565,-0.3576,-0.358,-0.3518,-0.3475,-0.3412,-0.3356,-0.3387,-0.3365,-0.3276,-0.3227,-0.3115,-0.323,-0.3311,-0.3312,-0.3312,-0.3312,-0.3313,-0.2604,-0.2655,-0.2778,-0.2878,-0.2971,-0.303,-0.302,-0.3143,-0.3212,-0.3243,-0.3415,-0.3398,-0.3503,-0.3429,-0.3394,-0.3346,-0.3302,-0.3273,-0.3299,-0.3273,-0.3172,-0.329,-0.3315,-0.3316,-0.3316,-0.3316,-0.3317,0,-0.2535,-0.2608,-0.2698,-0.2796,-0.2822,-0.2903,-0.2967,-0.2888,-0.2877,-0.3008,-0.3046,-0.3225,-0.326,-0.3331,-0.3396,-0.3307,-0.3192,-0.3219,-0.3162,-0.3091,-0.3216,-0.3187,-0.3166,-0.3166,-0.3166,-0.3166,-0.3166,-0.3166,-0.2506,-0.2573,-0.2626,-0.2623,-0.2653,-0.2561,-0.2534,-0.2426,-0.2428,-0.2424,-0.2547,-0.2669,-0.2922,-0.3417,-0.3435,-0.3317,-0.3188,-0.3127,-0.307,-0.3178,-0.3184,-0.319,-0.3162,-0.3136,-0.3136,-0.2862,-0.286,-0.2859]},{"header":{"parameterUnit":"m.s-1","parameterCategory":2,"la1":30.2991,"la2":30.254,"lo1":-89.0895,"lo2":-89.0444,"dy":0.0017,"dx":0.0017,"nx":28,"ny":28,"refTime":"2024-04-28T03:00:00:Z","depth":"0","parameterNumber":3,"parameterNumberName":"V-component_of_CURRENTS"},"data":[0,0,0,0,0,0,0,0,0,0,0,0,0,0,0,0,0,0,0,0,0,0,0,0,0,0,0,0,0,0,0,0,0,0,0,0,0,0,0,0,0,0,0,0,0,0,0,0,0,0,0,0,0,0,0,0,0,0,0.0044,0.0045,0,0.0167,0.0168,0.0169,0.0233,0.0233,0.0233,0.0233,0.0373,0.0376,0.038,0,0,0,0,0,0,0,0,0,0,0,0,0,-0.0066,-0.0065,0.0044,0.0046,0.0047,0.0166,0.0168,0.017,0.0233,0.0233,0.0233,0.0233,0.0371,0.0376,0.038,0,0,0,0,0,0,0,0,0,0,0,0,0,0.0012,-0.0064,0.0044,0.0093,0.0098,0.0166,0.0168,0.017,0.0233,0.0233,0.0233,0.0233,0.037,0.0375,0.0381,0.0413,0,0,0.0397,0.04,0,0,0,0,0,0,0,0,0.0007,0.0016,0.0084,0.009,0.0096,0.0184,0.018,0.0252,0.0233,0.0182,0.0233,0.0233,0.0311,0.0321,0.0344,0.0419,0.0425,0.0398,0.0401,0.0404,0.0405,0,0,0,0,0,0,0,0.0002,0.0011,0.0093,0.0086,0.0093,0.0132,0.0143,0.0195,0.0245,0.0187,0.0191,0.0205,0.0314,0.0339,0.0348,0.0427,0.0398,0.0403,0.0406,0.0408,0.0571,0.0572,0,0,0,0,0,0,-0.0017,0.0006,0.0089,0.0096,0.0051,0.0134,0.0146,0.0156,0.0244,0.0258,0.0204,0.0207,0.0329,0.0342,0.0353,0.0431,0.0403,0.0409,0.0412,0.057,0.0571,0.0572,0,0,0,0,0,0,-0.002,-0.0011,0.0084,0.0054,0.0069,0.0135,0.0147,0.0158,0.0184,0.0258,0.0271,0.0218,0.033,0.0345,0.0408,0.0435,0.0411,0.0416,0.0569,0.057,0.0572,0.0564,0,0,0,0,0,0,-0.0024,-0.0013,-0.0017,0.0052,0.007,0.0116,0.0147,0.0161,0.0192,0.0197,0.0274,0.0287,0.0331,0.0399,0.0413,0.0443,0.042,0.0567,0.0569,0.0571,0.0563,0.0566,0.0567,0,0,0,0,0,-0.0029,-0.0038,-0.0018,-0.0008,0.0064,0.0116,0.0128,0.0176,0.0192,0.02,0.0261,0.0284,0.0421,0.0404,0.042,0.0452,0.0566,0.0569,0.0571,0.0562,0.0565,0.0567,0,0,0,0,0,0,-0.0092,-0.003,-0.0007,0.0001,0.0052,0.0126,0.0134,0.0172,0.0227,0.023,0.0299,0.0317,0.0382,0.0415,0.0394,0.0504,0.0497,0.0503,0.0485,0.0488,0.049,0.0468,0.0425,0,0,0,0,0,-0.0108,-0.0097,-0.0028,-0.0023,-0.0001,0.0067,0.0092,0.0128,0.0187,0.021,0.027,0.0335,0.0405,0.0442,0.0497,0.0557,0.0592,0.0587,0.0589,0.059,0.0583,0.0672,0.0682,0.058,0.058,0.058,0,0,-0.0131,-0.0096,-0.009,-0.0035,0.0006,0.0034,0.0082,0.0115,0.0152,0.0217,0.0277,0.034,0.0421,0.0492,0.0524,0.0523,0.0637,0.0593,0.0594,0.0586,0.0676,0.0686,0.0695,0.0582,0.0581,0.0581,0,0,-0.0178,-0.0142,-0.015,-0.0108,-0.0051,0.0,0.0007,0.0084,0.0129,0.0192,0.026,0.0342,0.0426,0.051,0.0559,0.0605,0.0641,0.0617,0.0618,0.0705,0.0714,0.0722,0.0774,0.0787,0.0623,0.0623,0.0623,0,-0.0212,-0.0209,-0.0144,-0.0134,-0.0106,-0.0019,-0.0013,0.0054,0.0144,0.0192,0.02,0.0373,0.044,0.0565,0.0583,0.0612,0.0647,0.0603,0.0708,0.0717,0.0725,0.0776,0.079,0.0622,0.0622,0.0622,0.0622,0,-0.0258,-0.0251,-0.0251,-0.0206,-0.016,-0.0145,-0.0042,0.001,0.0072,0.0149,0.0268,0.0376,0.0476,0.0524,0.0568,0.0678,0.0676,0.0696,0.0698,0.0735,0.0786,0.0801,0.0622,0.0622,0.0622,0.0622,0,0,-0.0339,-0.0299,-0.0296,-0.0296,-0.02,-0.0174,-0.0095,0.0001,0.0054,0.0166,0.0247,0.0399,0.0463,0.0523,0.061,0.0698,0.0796,0.0714,0.0719,0.0758,0.0962,0.1023,0.1045,0.0832,0.0835,0.0837,0.0969,0,-0.0399,-0.0435,-0.0363,-0.0363,-0.0374,-0.025,-0.0183,-0.0072,0.0033,0.0136,0.0297,0.0396,0.0466,0.0514,0.0621,0.0756,0.0836,0.0757,0.0925,0.0929,0.0976,0.1066,0.118,0.1314,0.0984,0.0987,0.0989,0,-0.0464,-0.0481,-0.0519,-0.0464,-0.0449,-0.0416,-0.0298,-0.0224,-0.0031,0.0055,0.0205,0.0328,0.0506,0.0535,0.0789,0.0731,0.0833,0.0932,0.0939,0.1008,0.1021,0.1227,0.1354,0.1603,0.1012,0.101,0.1009,0,-0.0591,-0.0576,-0.0622,-0.0605,-0.0525,-0.0495,-0.0435,-0.0264,-0.019,0.0001,0.0073,0.0301,0.0413,0.0591,0.0815,0.0796,0.1073,0.1073,0.1225,0.1228,0.1365,0.1377,0.1751,0.1227,0.1227,0.1226,0.1226,0,-0.0694,-0.0719,-0.0697,-0.072,-0.0743,-0.0626,-0.0589,-0.0483,-0.0314,-0.0215,0.0007,0.014,0.043,0.0639,0.081,0.1084,0.1076,0.1245,0.1286,0.1364,0.1374,0.1625,0.1702,0.1231,0.123,0.1229,0.1228,0,-0.0825,-0.0812,-0.0865,-0.0825,-0.0816,-0.0834,-0.0726,-0.068,-0.0502,-0.0367,-0.0308,0.0026,0.0325,0.0609,0.0924,0.1084,0.1478,0.1404,0.1462,0.151,0.1873,0.194,0.2249,0.2361,0.1598,0.1601,0.1603,0,-0.0901,-0.0951,-0.0978,-0.1023,-0.1013,-0.1011,-0.099,-0.0815,-0.0734,-0.0422,-0.0355,-0.0021,0.0273,0.0775,0.1132,0.1477,0.161,0.1729,0.1728,0.1944,0.2051,0.2047,0.2116,0.1901,0.1906,0.1909,0.1912,0,-0.1042,-0.1052,-0.1102,-0.1209,-0.1232,-0.1223,-0.1166,-0.112,-0.0869,-0.0687,-0.0369,-0.0103,0.0456,0.1,0.145,0.1626,0.1928,0.1811,0.2057,0.2349,0.2351,0.246,0.1723,0.1945,0.1942,0.1939,0.1937,0.1936,-0.1139,-0.1223,-0.1301,-0.1388,-0.1419,-0.1401,-0.137,-0.1243,-0.1073,-0.0709,-0.0417,0.011,0.0894,0.1605,0.1824,0.2352,0.22,0.2492,0.256,0.2537,0.266,0.1971,0.2221,0.2219,0.2218,0.2217,0.2216,0,-0.1269,-0.1353,-0.1466,-0.1545,-0.159,-0.1548,-0.145,-0.1333,-0.1121,-0.0694,-0.0306,0.073,0.1488,0.2138,0.2904,0.3145,0.3126,0.3213,0.3284,0.332,0.2772,0.2804,0.3168,0.3168,0.3167,0.3167,0.3167,0.3166,-0.1342,-0.1499,-0.1558,-0.1677,-0.1701,-0.1659,-0.1584,-0.1355,-0.1027,-0.0326,0.0333,0.0847,0.1839,0.3165,0.3861,0.3855,0.4048,0.3967,0.4029,0.3721,0.3659,0.36,0.3657,0.4193,0.4194,0.4572,0.4577,0.4581]}],[{"header":{"parameterUnit":"m.s-1","parameterCategory":2,"la1":30.2991,"la2":30.254,"lo1":-89.0895,"lo2":-89.0444,"dy":0.0017,"dx":0.0017,"nx":28,"ny":28,"refTime":"2024-04-28T03:00:00:Z","depth":"2","parameterNumber":2,"parameterNumberName":"U-component_of_CURRENTS"},"data":[0,0,0,0,0,0,0,0,0,0,0,0,0,0,0,0,0,0,0,0,0,0,0,0,0,0,0,0,0,0,0,0,0,0,0,0,0,0,0,0,0,0,0,0,0,0,0,0,0,0,0,0,0,0,0,0,0,0,-0.2417,-0.2417,0,-0.2404,-0.2404,-0.2403,-0.2407,-0.2408,-0.2408,-0.2409,-0.235,-0.2348,-0.2346,0,0,0,0,0,0,0,0,0,0,0,0,0,-0.2372,-0.2372,-0.2417,-0.2417,-0.2417,-0.2404,-0.2404,-0.2403,-0.2407,-0.2408,-0.2409,-0.2409,-0.2351,-0.2348,-0.2346,0,0,0,0,0,0,0,0,0,0,0,0,0,-0.2374,-0.2373,-0.2417,-0.2421,-0.2421,-0.2404,-0.2404,-0.2403,-0.2407,-0.2408,-0.2409,-0.241,-0.2352,-0.2349,-0.2345,-0.2306,0,0,-0.2335,-0.2334,0,0,0,0,0,0,0,0,-0.2374,-0.2376,-0.242,-0.2421,-0.2421,-0.2412,-0.2366,-0.237,-0.2407,-0.2408,-0.2409,-0.241,-0.2369,-0.2364,-0.2354,-0.2303,-0.23,-0.2335,-0.2333,-0.2332,-0.2331,0,0,0,0,0,0,0,-0.2374,-0.2376,-0.2408,-0.242,-0.2421,-0.2398,-0.24,-0.2366,-0.2379,-0.2408,-0.2409,-0.2414,-0.2368,-0.2357,-0.2353,-0.23,-0.2335,-0.2332,-0.233,-0.2329,-0.2273,-0.2274,0,0,0,0,0,0,-0.2387,-0.2376,-0.2408,-0.2408,-0.2404,-0.2399,-0.2401,-0.241,-0.238,-0.2378,-0.2413,-0.2414,-0.2362,-0.2357,-0.2351,-0.2406,-0.2332,-0.2329,-0.2327,-0.2273,-0.2274,-0.2274,0,0,0,0,0,0,-0.2386,-0.239,-0.2409,-0.2394,-0.2396,-0.24,-0.241,-0.241,-0.2408,-0.2386,-0.2382,-0.2414,-0.2363,-0.2355,-0.2334,-0.24,-0.2327,-0.2324,-0.2272,-0.2273,-0.2274,-0.245,0,0,0,0,0,0,-0.2385,-0.239,-0.239,-0.2396,-0.2397,-0.2429,-0.241,-0.2409,-0.2411,-0.2413,-0.2384,-0.238,-0.2363,-0.234,-0.2331,-0.2394,-0.2322,-0.2272,-0.2273,-0.2274,-0.2444,-0.2457,-0.2468,0,0,0,0,0,-0.2383,-0.2392,-0.2391,-0.2394,-0.2402,-0.243,-0.2429,-0.2431,-0.241,-0.2427,-0.2395,-0.2381,-0.234,-0.2337,-0.2327,-0.2391,-0.2271,-0.2273,-0.2274,-0.2438,-0.2454,-0.2468,0,0,0,0,0,0,-0.2368,-0.2394,-0.2392,-0.2406,-0.2429,-0.2434,-0.244,-0.2431,-0.2416,-0.2412,-0.2375,-0.2369,-0.2382,-0.2338,-0.2335,-0.2371,-0.2307,-0.2306,-0.2436,-0.245,-0.2462,-0.2501,-0.2319,0,0,0,0,0,-0.2365,-0.238,-0.2405,-0.2415,-0.243,-0.2429,-0.2433,-0.2443,-0.2435,-0.243,-0.2413,-0.2385,-0.2374,-0.2373,-0.2351,-0.2358,-0.234,-0.239,-0.2403,-0.2414,-0.2434,-0.2452,-0.247,-0.2278,-0.2278,-0.2278,0,0,-0.2354,-0.2375,-0.2378,-0.2413,-0.2423,-0.2483,-0.2435,-0.246,-0.2512,-0.2422,-0.2466,-0.2422,-0.2379,-0.2407,-0.241,-0.2385,-0.2459,-0.2415,-0.2426,-0.244,-0.2456,-0.2475,-0.2492,-0.2278,-0.2278,-0.2278,0,0,-0.2383,-0.2371,-0.2415,-0.245,-0.249,-0.2503,-0.2517,-0.2537,-0.2548,-0.257,-0.2529,-0.2519,-0.2494,-0.25,-0.2491,-0.2543,-0.2517,-0.2531,-0.264,-0.2659,-0.2676,-0.2691,-0.2707,-0.2722,-0.2547,-0.2547,-0.2547,0,-0.2372,-0.2441,-0.2429,-0.2503,-0.2544,-0.2526,-0.2605,-0.2618,-0.263,-0.2646,-0.261,-0.259,-0.2552,-0.2599,-0.2625,-0.2581,-0.2577,-0.2601,-0.2681,-0.2695,-0.2708,-0.272,-0.2735,-0.2556,-0.2555,-0.2554,-0.2553,0,-0.2455,-0.2519,-0.2549,-0.2644,-0.2681,-0.2738,-0.2777,-0.2806,-0.28,-0.2811,-0.2836,-0.2777,-0.2765,-0.2761,-0.2712,-0.2786,-0.275,-0.2695,-0.2661,-0.2739,-0.2745,-0.2758,-0.2568,-0.2565,-0.2562,-0.256,0,0,-0.2418,-0.2579,-0.2594,-0.2671,-0.2764,-0.2802,-0.2895,-0.2969,-0.3014,-0.3016,-0.3069,-0.3053,-0.2996,-0.2978,-0.2917,-0.2938,-0.302,-0.2866,-0.2863,-0.2913,-0.307,-0.3047,-0.3056,-0.2987,-0.299,-0.2992,-0.3046,0,-0.2495,-0.2667,-0.2723,-0.2875,-0.2965,-0.2999,-0.3082,-0.3137,-0.3152,-0.3191,-0.3155,-0.316,-0.3088,-0.3065,-0.3086,-0.3012,-0.3057,-0.3011,-0.2959,-0.2958,-0.2953,-0.3071,-0.2747,-0.2768,-0.3057,-0.3059,-0.306,0,-0.2566,-0.2678,-0.2849,-0.3011,-0.3047,-0.3121,-0.3227,-0.3297,-0.3352,-0.3358,-0.337,-0.3317,-0.3332,-0.3244,-0.3238,-0.321,-0.3171,-0.3128,-0.3128,-0.3055,-0.2957,-0.2729,-0.2778,-0.308,-0.3078,-0.3077,-0.3075,0,-0.2558,-0.2759,-0.2896,-0.2954,-0.3128,-0.3188,-0.3256,-0.3335,-0.3383,-0.344,-0.3457,-0.3469,-0.3436,-0.3418,-0.3317,-0.3285,-0.3305,-0.3239,-0.3203,-0.3199,-0.2887,-0.2853,-0.3283,-0.3283,-0.3283,-0.3283,-0.3282,0,-0.2625,-0.2731,-0.2896,-0.2972,-0.3093,-0.3199,-0.3297,-0.3365,-0.3445,-0.3496,-0.3513,-0.3526,-0.3476,-0.3459,-0.339,-0.3338,-0.3366,-0.3262,-0.323,-0.2938,-0.291,-0.3133,-0.3115,-0.3284,-0.3284,-0.3284,-0.3283,0,-0.2606,-0.2733,-0.2876,-0.3052,-0.3098,-0.3165,-0.3299,-0.3363,-0.3448,-0.3512,-0.3527,-0.3571,-0.3548,-0.3508,-0.3458,-0.3412,-0.3368,-0.3346,-0.3016,-0.2948,-0.3237,-0.3227,-0.3337,-0.3337,-0.3337,-0.3337,-0.3337,0,-0.2621,-0.2694,-0.2876,-0.2937,-0.3014,-0.3125,-0.3196,-0.3329,-0.3387,-0.3518,-0.3535,-0.3565,-0.3537,-0.3496,-0.3364,-0.3288,-0.337,-0.3038,-0.2939,-0.3296,-0.3252,-0.3242,-0.3232,-0.2581,-0.2574,-0.257,-0.2565,0,-0.2608,-0.2656,-0.2772,-0.2887,-0.2974,-0.3068,-0.3174,-0.3222,-0.3368,-0.3414,-0.3482,-0.348,-0.3427,-0.3187,-0.3116,-0.3025,-0.3026,-0.2941,-0.3378,-0.2644,-0.2594,-0.2548,-0.256,-0.252,-0.2525,-0.2528,-0.2531,-0.2532,-0.2552,-0.2603,-0.2724,-0.2823,-0.2914,-0.2971,-0.296,-0.3001,-0.3041,-0.2965,-0.3221,-0.304,-0.3069,-0.2714,-0.2665,-0.2596,-0.2782,-0.267,-0.2679,-0.2696,-0.2626,-0.2582,-0.2492,-0.2496,-0.2499,-0.2502,-0.2505,0,-0.2436,-0.2557,-0.2646,-0.2743,-0.269,-0.2847,-0.2907,-0.2717,-0.2579,-0.2578,-0.252,-0.2268,-0.2183,-0.2218,-0.2031,-0.2113,-0.2017,-0.2074,-0.1909,-0.1953,-0.1993,-0.1883,-0.1554,-0.1552,-0.155,-0.1548,0,0,-0.2395,-0.243,-0.2482,-0.2426,-0.2508,-0.2301,-0.2268,-0.2036,-0.1879,-0.161,-0.1514,-0.1704,-0.1962,-0.163,-0.1687,-0.1573,-0.1708,-0.1496,-0.2236,-0.2065,-0.21,-0.2309,-0.2188,0,0,0,0,0]},{"header":{"parameterUnit":"m.s-1","parameterCategory":2,"la1":30.2991,"la2":30.254,"lo1":-89.0895,"lo2":-89.0444,"dy":0.0017,"dx":0.0017,"nx":28,"ny":28,"refTime":"2024-04-28T03:00:00:Z","depth":"2","parameterNumber":3,"parameterNumberName":"V-component_of_CURRENTS"},"data":[0,0,0,0,0,0,0,0,0,0,0,0,0,0,0,0,0,0,0,0,0,0,0,0,0,0,0,0,0,0,0,0,0,0,0,0,0,0,0,0,0,0,0,0,0,0,0,0,0,0,0,0,0,0,0,0,0,0,0.0022,0.0024,0,0.0144,0.0146,0.0147,0.021,0.021,0.021,0.021,0.0349,0.0353,0.0357,0,0,0,0,0,0,0,0,0,0,0,0,0,-0.0088,-0.0087,0.0022,0.0024,0.0025,0.0144,0.0146,0.0148,0.021,0.021,0.021,0.0211,0.0348,0.0353,0.0357,0,0,0,0,0,0,0,0,0,0,0,0,0,-0.0011,-0.0086,0.0022,0.0071,0.0076,0.0144,0.0146,0.0148,0.021,0.021,0.021,0.0211,0.0347,0.0352,0.0358,0.039,0,0,0.0374,0.0377,0,0,0,0,0,0,0,0,-0.0015,-0.0007,0.0062,0.0068,0.0074,0.0162,0.0158,0.023,0.021,0.016,0.021,0.0211,0.0288,0.0298,0.0321,0.0396,0.0402,0.0375,0.0378,0.038,0.0382,0,0,0,0,0,0,0,-0.0021,-0.0011,0.0071,0.0064,0.0071,0.011,0.012,0.0172,0.0222,0.0164,0.0169,0.0182,0.0291,0.0316,0.0325,0.0404,0.0375,0.0379,0.0383,0.0385,0.0547,0.0548,0,0,0,0,0,0,-0.004,-0.0016,0.0067,0.0075,0.0028,0.0111,0.0123,0.0134,0.0222,0.0235,0.0182,0.0185,0.0306,0.0319,0.033,0.0407,0.038,0.0386,0.0389,0.0546,0.0547,0.0548,0,0,0,0,0,0,-0.0043,-0.0034,0.0062,0.0032,0.0047,0.0113,0.0125,0.0136,0.0162,0.0235,0.0249,0.0195,0.0307,0.0323,0.0384,0.0411,0.0388,0.0393,0.0545,0.0546,0.0548,0.0539,0,0,0,0,0,0,-0.0046,-0.0035,-0.0039,0.003,0.0048,0.0094,0.0125,0.0139,0.017,0.0174,0.0251,0.0264,0.0308,0.0376,0.039,0.0418,0.0397,0.0543,0.0545,0.0547,0.0538,0.054,0.0542,0,0,0,0,0,-0.0051,-0.006,-0.004,-0.003,0.0042,0.0094,0.0106,0.0154,0.017,0.0178,0.0239,0.0262,0.0398,0.0381,0.0397,0.0428,0.0543,0.0545,0.0547,0.0537,0.0539,0.0541,0,0,0,0,0,0,-0.0114,-0.0052,-0.0029,-0.002,0.003,0.0104,0.0113,0.015,0.0204,0.0207,0.0277,0.0294,0.0359,0.0391,0.0371,0.048,0.0474,0.0479,0.046,0.0463,0.0465,0.0442,0.0402,0,0,0,0,0,-0.0129,-0.0118,-0.0049,-0.0043,-0.0022,0.0045,0.0071,0.0106,0.0165,0.0188,0.0247,0.0312,0.0381,0.0418,0.0473,0.0532,0.0567,0.0561,0.0563,0.0565,0.0557,0.0645,0.0654,0.0556,0.0556,0.0556,0,0,-0.0152,-0.0117,-0.0111,-0.0056,-0.0015,0.0012,0.006,0.0093,0.0129,0.0195,0.0254,0.0317,0.0397,0.0467,0.0499,0.0498,0.0611,0.0567,0.0568,0.056,0.0649,0.0658,0.0667,0.0557,0.0557,0.0557,0,0,-0.0198,-0.0162,-0.017,-0.0128,-0.0072,-0.0021,-0.0014,0.0062,0.0107,0.0169,0.0237,0.0318,0.0401,0.0484,0.0533,0.0577,0.0614,0.0589,0.0589,0.0675,0.0684,0.0692,0.0743,0.0756,0.0595,0.0595,0.0595,0,-0.0232,-0.0229,-0.0164,-0.0155,-0.0127,-0.004,-0.0035,0.0032,0.0121,0.0168,0.0176,0.0348,0.0415,0.0537,0.0554,0.0584,0.0618,0.0575,0.0677,0.0686,0.0695,0.0745,0.0759,0.0595,0.0595,0.0595,0.0595,0,-0.0278,-0.0271,-0.0272,-0.0228,-0.0183,-0.0168,-0.0066,-0.0014,0.0047,0.0124,0.0241,0.0348,0.0448,0.0495,0.0539,0.0646,0.0646,0.0666,0.0669,0.0704,0.0755,0.077,0.0594,0.0594,0.0594,0.0595,0,0,-0.0358,-0.032,-0.0316,-0.0317,-0.0223,-0.0198,-0.012,-0.0026,0.0026,0.0137,0.0217,0.0367,0.0432,0.0491,0.0578,0.0664,0.0762,0.0682,0.0687,0.0725,0.0925,0.0985,0.1006,0.0797,0.08,0.0802,0.0934,0,-0.0418,-0.0456,-0.0385,-0.0386,-0.0398,-0.0275,-0.021,-0.0101,0.0003,0.0105,0.0265,0.0363,0.0433,0.0482,0.0587,0.0722,0.0801,0.0722,0.089,0.0895,0.0939,0.1027,0.0833,0.094,0.0948,0.0951,0.0953,0,-0.0483,-0.0501,-0.0541,-0.0489,-0.0474,-0.0442,-0.0326,-0.0253,-0.0063,0.0023,0.0171,0.0293,0.047,0.05,0.0752,0.0695,0.0797,0.0895,0.0903,0.097,0.0983,0.0909,0.0967,0.0978,0.0976,0.0974,0.0973,0,-0.061,-0.0597,-0.0645,-0.0628,-0.0551,-0.0522,-0.0462,-0.0294,-0.0222,-0.0032,0.004,0.0265,0.0377,0.0553,0.0777,0.0759,0.1033,0.1034,0.1183,0.1186,0.1062,0.1052,0.1186,0.1186,0.1186,0.1185,0.1185,0,-0.0713,-0.0739,-0.0718,-0.0742,-0.0767,-0.0651,-0.0617,-0.0512,-0.0345,-0.0248,-0.0026,0.0105,0.0394,0.0601,0.0771,0.1043,0.1035,0.1202,0.1244,0.1054,0.1042,0.1101,0.1089,0.119,0.1189,0.1188,0.1187,0,-0.0843,-0.0832,-0.0885,-0.0848,-0.0839,-0.0858,-0.0752,-0.0708,-0.0532,-0.0398,-0.034,-0.0008,0.0288,0.0571,0.0883,0.1043,0.1279,0.1359,0.1112,0.1125,0.1364,0.135,0.1543,0.1547,0.155,0.1553,0.1555,0,-0.0919,-0.097,-0.0998,-0.1044,-0.1035,-0.1033,-0.1014,-0.0841,-0.0762,-0.0453,-0.0387,-0.0056,0.0224,0.0723,0.1,0.1321,0.1367,0.136,0.1318,0.139,0.141,0.1391,0.1374,0.1129,0.1128,0.1127,0.1126,0,-0.106,-0.107,-0.1121,-0.1229,-0.1252,-0.1245,-0.119,-0.1144,-0.0896,-0.0726,-0.0411,-0.0159,0.0324,0.0668,0.1082,0.1232,0.1303,0.1352,0.1502,0.109,0.1017,0.1031,0.1024,0.1115,0.1116,0.1117,0.1117,0.1118,-0.1156,-0.1241,-0.1319,-0.1407,-0.1438,-0.1422,-0.1392,-0.1292,-0.1136,-0.085,-0.0542,-0.017,0.0223,0.0765,0.1053,0.1273,0.1314,0.1345,0.134,0.1339,0.129,0.1229,0.1353,0.1356,0.1358,0.1359,0.1361,0,-0.1283,-0.137,-0.1483,-0.1563,-0.161,-0.1567,-0.1472,-0.1407,-0.1242,-0.0982,-0.0674,-0.0224,0.0191,0.0603,0.0921,0.1203,0.1117,0.1246,0.1061,0.1068,0.1076,0.1007,0.1,0.1001,0.1001,0.1002,0,0,-0.1356,-0.1512,-0.157,-0.1694,-0.1721,-0.1717,-0.1645,-0.1526,-0.135,-0.1082,-0.081,-0.0429,0.0138,0.0324,0.0638,0.0815,0.0856,0.0802,0.1039,0.0778,0.0782,0.1063,0.0959,0,0,0,0,0]}],[{"header":{"parameterUnit":"m.s-1","parameterCategory":2,"la1":30.2991,"la2":30.254,"lo1":-89.0895,"lo2":-89.0444,"dy":0.0017,"dx":0.0017,"nx":28,"ny":28,"refTime":"2024-04-28T03:00:00:Z","depth":"4","parameterNumber":2,"parameterNumberName":"U-component_of_CURRENTS"},"data":[0,0,0,0,0,0,0,0,0,0,0,0,0,0,0,0,0,0,0,0,0,0,0,0,0,0,0,0,0,0,0,0,0,0,0,0,0,0,0,0,0,0,0,0,0,0,0,0,0,0,0,0,0,0,0,0,0,0,-0.1367,-0.1367,0,-0.1385,-0.1385,-0.1385,-0.1412,-0.1413,-0.1413,-0.1414,-0.1381,-0.138,-0.1378,0,0,0,0,0,0,0,0,0,0,0,0,0,-0.128,-0.1281,-0.1367,-0.1367,-0.1368,-0.1385,-0.1385,-0.1385,-0.1411,-0.1413,-0.1414,-0.1415,-0.1382,-0.138,-0.1378,0,0,0,0,0,0,0,0,0,0,0,0,0,-0.1305,-0.1282,-0.1366,-0.1387,-0.1389,-0.1385,-0.1385,-0.1385,-0.1411,-0.1413,-0.1414,-0.1415,-0.1383,-0.138,-0.1378,-0.1335,0,0,-0.137,-0.1369,0,0,0,0,0,0,0,0,-0.1304,-0.1308,-0.1383,-0.1385,-0.1388,-0.1402,-0.1343,-0.1367,-0.1411,-0.1398,-0.1414,-0.1416,-0.1385,-0.1383,-0.1377,-0.1334,-0.1333,-0.137,-0.1368,-0.1367,-0.1366,0,0,0,0,0,0,0,-0.1302,-0.1307,-0.1369,-0.1384,-0.1387,-0.137,-0.1375,-0.1347,-0.1379,-0.1399,-0.1402,-0.1411,-0.1386,-0.138,-0.1377,-0.1332,-0.137,-0.1367,-0.1366,-0.1365,-0.1331,-0.1332,0,0,0,0,0,0,-0.1312,-0.1306,-0.1369,-0.137,-0.1354,-0.1371,-0.1376,-0.1392,-0.1381,-0.1382,-0.141,-0.1413,-0.1384,-0.138,-0.1376,-0.1444,-0.1367,-0.1365,-0.1363,-0.1331,-0.1332,-0.1332,0,0,0,0,0,0,-0.131,-0.1318,-0.1368,-0.1341,-0.1347,-0.1372,-0.1388,-0.1392,-0.1416,-0.1391,-0.139,-0.1435,-0.1384,-0.1379,-0.1384,-0.1438,-0.1364,-0.1361,-0.133,-0.1331,-0.1332,-0.1504,0,0,0,0,0,0,-0.1308,-0.1317,-0.1338,-0.1343,-0.135,-0.1399,-0.1388,-0.1391,-0.142,-0.1424,-0.1411,-0.1408,-0.1385,-0.1388,-0.1382,-0.1433,-0.1359,-0.1329,-0.1331,-0.1332,-0.1497,-0.151,-0.1521,0,0,0,0,0,-0.1304,-0.133,-0.1339,-0.1347,-0.1376,-0.1401,-0.1403,-0.142,-0.142,-0.1443,-0.1433,-0.141,-0.1391,-0.1387,-0.1379,-0.1431,-0.1329,-0.133,-0.1332,-0.1492,-0.1508,-0.1521,0,0,0,0,0,0,-0.1305,-0.1336,-0.1345,-0.1381,-0.1404,-0.1408,-0.1428,-0.1434,-0.1442,-0.1446,-0.1418,-0.1414,-0.1438,-0.1395,-0.1392,-0.1419,-0.1355,-0.1355,-0.148,-0.1494,-0.1506,-0.1534,-0.1357,0,0,0,0,0,-0.1314,-0.1342,-0.1367,-0.1396,-0.1411,-0.1421,-0.1435,-0.1448,-0.1452,-0.1459,-0.1453,-0.1435,-0.143,-0.1434,-0.1412,-0.1425,-0.1411,-0.1448,-0.1461,-0.1472,-0.1485,-0.1516,-0.1534,-0.1337,-0.1337,-0.1337,0,0,-0.1323,-0.1343,-0.136,-0.1399,-0.1412,-0.1452,-0.1433,-0.1465,-0.1508,-0.145,-0.15,-0.1477,-0.1439,-0.1466,-0.1472,-0.1446,-0.152,-0.1474,-0.1485,-0.1491,-0.152,-0.154,-0.1557,-0.1338,-0.1338,-0.1338,0,0,-0.1348,-0.1373,-0.1405,-0.1432,-0.1469,-0.1483,-0.1502,-0.1525,-0.155,-0.1582,-0.1558,-0.1573,-0.1553,-0.1558,-0.1551,-0.1608,-0.158,-0.1594,-0.1692,-0.1724,-0.1741,-0.1757,-0.1777,-0.1793,-0.1607,-0.1608,-0.1608,0,-0.1357,-0.1404,-0.1418,-0.1458,-0.1493,-0.1506,-0.1555,-0.1582,-0.1609,-0.1638,-0.162,-0.1631,-0.1604,-0.1653,-0.1679,-0.1644,-0.1648,-0.1652,-0.1746,-0.176,-0.1773,-0.179,-0.1806,-0.1616,-0.1615,-0.1614,-0.1613,0,-0.14,-0.1451,-0.1473,-0.1535,-0.1574,-0.1616,-0.1662,-0.1709,-0.1733,-0.1757,-0.1812,-0.1783,-0.1794,-0.1792,-0.1757,-0.1837,-0.1806,-0.1761,-0.1724,-0.1805,-0.1816,-0.1829,-0.1628,-0.1625,-0.1623,-0.1621,0,0,-0.1382,-0.1485,-0.1495,-0.1544,-0.1621,-0.1654,-0.1743,-0.1821,-0.1884,-0.1915,-0.1989,-0.1996,-0.1986,-0.1974,-0.1942,-0.1973,-0.2072,-0.1919,-0.1917,-0.1968,-0.2148,-0.2,-0.1999,-0.2055,-0.2058,-0.206,-0.2126,0,-0.1413,-0.1497,-0.1552,-0.1652,-0.17,-0.1767,-0.185,-0.1924,-0.1976,-0.205,-0.2061,-0.2101,-0.2055,-0.2066,-0.2101,-0.2062,-0.2111,-0.2058,-0.2036,-0.2035,-0.1918,-0.2011,-0.2069,-0.2135,-0.2138,-0.214,-0.2141,0,-0.1427,-0.1489,-0.1583,-0.1717,-0.1747,-0.1819,-0.1952,-0.2028,-0.2137,-0.218,-0.2242,-0.2237,-0.2293,-0.223,-0.2268,-0.2239,-0.222,-0.2195,-0.2196,-0.2005,-0.1911,-0.2028,-0.2164,-0.2162,-0.2161,-0.2159,-0.2158,0,-0.1374,-0.151,-0.1588,-0.163,-0.1779,-0.1853,-0.1942,-0.2064,-0.2134,-0.2261,-0.2312,-0.2376,-0.2395,-0.2403,-0.2348,-0.2324,-0.2373,-0.2323,-0.2186,-0.2175,-0.2214,-0.2197,-0.2379,-0.2379,-0.2378,-0.2378,-0.2378,0,-0.136,-0.1428,-0.1576,-0.1615,-0.1724,-0.1843,-0.1964,-0.2063,-0.22,-0.2274,-0.2367,-0.2405,-0.244,-0.2454,-0.2412,-0.2333,-0.2429,-0.2226,-0.219,-0.2282,-0.2271,-0.2224,-0.2206,-0.2381,-0.238,-0.238,-0.2379,0,-0.127,-0.1373,-0.1465,-0.1635,-0.1694,-0.1765,-0.1955,-0.2034,-0.2188,-0.2287,-0.2329,-0.2444,-0.2456,-0.2471,-0.2469,-0.2385,-0.2336,-0.2289,-0.2404,-0.237,-0.2108,-0.2097,-0.2156,-0.2151,-0.2148,-0.2144,-0.2142,0,-0.1232,-0.1264,-0.1433,-0.1486,-0.1567,-0.17,-0.1789,-0.1989,-0.2063,-0.227,-0.2289,-0.2382,-0.2425,-0.2321,-0.2349,-0.2301,-0.2258,-0.2246,-0.2172,-0.213,-0.2091,-0.2086,-0.208,-0.2136,-0.2135,-0.2134,-0.2133,0,-0.1136,-0.1194,-0.1259,-0.1359,-0.1463,-0.1569,-0.171,-0.1754,-0.1972,-0.2145,-0.2193,-0.2213,-0.2233,-0.2214,-0.2201,-0.2154,-0.2259,-0.2206,-0.2213,-0.2143,-0.2106,-0.207,-0.2069,-0.212,-0.2121,-0.2123,-0.2123,0,-0.1045,-0.1051,-0.1128,-0.1198,-0.1313,-0.1372,-0.1495,-0.1601,-0.1709,-0.1962,-0.1965,-0.2076,-0.2201,-0.2138,-0.2115,-0.2072,-0.2029,-0.1963,-0.1981,-0.1996,-0.1908,-0.1837,-0.176,0,0,0,0,0,-0.0942,-0.0916,-0.0967,-0.103,-0.1133,-0.1192,-0.1398,-0.1531,-0.1754,-0.1741,-0.1856,-0.1871,-0.1881,-0.1934,-0.1847,-0.2008,-0.201,-0.19,-0.1936,-0.2046,-0.2062,-0.1969,0,0,0,0,0,0,-0.0873,-0.0889,-0.0894,-0.0851,-0.0856,-0.0959,-0.1076,-0.1254,-0.1272,-0.1511,-0.1516,-0.1719,-0.1733,-0.1855,-0.1777,-0.1796,-0.178,-0.1989,-0.1985,-0.2038,-0.2052,-0.2064,-0.1974,0,0,0,0,0]},{"header":{"parameterUnit":"m.s-1","parameterCategory":2,"la1":30.2991,"la2":30.254,"lo1":-89.0895,"lo2":-89.0444,"dy":0.0017,"dx":0.0017,"nx":28,"ny":28,"refTime":"2024-04-28T03:00:00:Z","depth":"4","parameterNumber":3,"parameterNumberName":"V-component_of_CURRENTS"},"data":[0,0,0,0,0,0,0,0,0,0,0,0,0,0,0,0,0,0,0,0,0,0,0,0,0,0,0,0,0,0,0,0,0,0,0,0,0,0,0,0,0,0,0,0,0,0,0,0,0,0,0,0,0,0,0,0,0,0,-0.0133,-0.0132,0,-0.0039,-0.0038,-0.0036,-0.0006,-0.0006,-0.0007,-0.0007,0.0092,0.0095,0.0098,0,0,0,0,0,0,0,0,0,0,0,0,0,-0.0236,-0.0234,-0.0133,-0.0132,-0.0131,-0.0039,-0.0038,-0.0036,-0.0006,-0.0006,-0.0007,-0.0008,0.0091,0.0095,0.0099,0,0,0,0,0,0,0,0,0,0,0,0,0,-0.017,-0.0234,-0.0133,-0.0106,-0.0103,-0.0039,-0.0038,-0.0036,-0.0005,-0.0006,-0.0007,-0.0008,0.009,0.0095,0.0099,0.0146,0,0,0.0114,0.0116,0,0,0,0,0,0,0,0,-0.0174,-0.0166,-0.0111,-0.0108,-0.0104,-0.0036,-0.0038,0.0025,-0.0005,-0.004,-0.0007,-0.0008,0.0049,0.0057,0.0079,0.0151,0.0155,0.0114,0.0117,0.0119,0.0121,0,0,0,0,0,0,0,-0.0179,-0.017,-0.0094,-0.011,-0.0105,-0.0081,-0.0073,-0.0025,0.001,-0.0037,-0.0035,-0.0028,0.0051,0.0075,0.0082,0.0156,0.0114,0.0118,0.0121,0.0123,0.0247,0.0247,0,0,0,0,0,0,-0.0195,-0.0174,-0.0097,-0.0091,-0.0144,-0.0079,-0.007,-0.0056,0.0009,0.0018,-0.0027,-0.0026,0.0067,0.0076,0.0085,0.012,0.0119,0.0124,0.0126,0.0246,0.0247,0.0247,0,0,0,0,0,0,-0.0197,-0.0189,-0.0101,-0.0132,-0.012,-0.0077,-0.0061,-0.0053,-0.0034,0.0017,0.0025,-0.0016,0.0067,0.0079,0.0125,0.0125,0.0126,0.013,0.0246,0.0247,0.0247,0.0205,0,0,0,0,0,0,-0.0201,-0.019,-0.0187,-0.0133,-0.0119,-0.0075,-0.006,-0.0051,-0.0029,-0.0027,0.0029,0.0037,0.0067,0.0118,0.013,0.0132,0.0134,0.0245,0.0246,0.0247,0.0206,0.0204,0.0203,0,0,0,0,0,-0.0205,-0.0197,-0.0187,-0.0178,-0.0115,-0.0075,-0.0066,-0.0037,-0.0028,-0.0022,0.002,0.0035,0.0131,0.0123,0.0137,0.0139,0.0245,0.0246,0.0247,0.0207,0.0205,0.0203,0,0,0,0,0,0,-0.024,-0.0192,-0.018,-0.0158,-0.0126,-0.0071,-0.0062,-0.0038,0.0003,0.0003,0.0051,0.0063,0.0099,0.0131,0.012,0.0177,0.0187,0.0191,0.0152,0.015,0.0149,0.013,0.0138,0,0,0,0,0,-0.0246,-0.0229,-0.0183,-0.0167,-0.0154,-0.0107,-0.0087,-0.0067,-0.0024,-0.0008,0.0033,0.0076,0.0117,0.0141,0.0179,0.0221,0.0257,0.023,0.0228,0.0226,0.0221,0.0285,0.0288,0.025,0.025,0.025,0,0,-0.0256,-0.0228,-0.0218,-0.0174,-0.0146,-0.014,-0.0097,-0.0072,-0.0063,-0.0002,0.0025,0.0073,0.0127,0.0164,0.0183,0.019,0.0256,0.0227,0.0225,0.0221,0.0286,0.029,0.0293,0.0251,0.0251,0.0251,0,0,-0.0283,-0.0242,-0.0249,-0.0225,-0.0191,-0.0159,-0.0156,-0.0103,-0.0077,-0.0039,0.0003,0.0056,0.0115,0.0159,0.0187,0.0205,0.0242,0.0211,0.0193,0.0256,0.0259,0.0263,0.0309,0.0317,0.0214,0.0213,0.0213,0,-0.0304,-0.0304,-0.0245,-0.0251,-0.0241,-0.0176,-0.019,-0.0147,-0.0087,-0.006,-0.0045,0.0064,0.0111,0.0169,0.0172,0.02,0.0236,0.0194,0.0253,0.0257,0.0261,0.0308,0.0317,0.0212,0.0212,0.0212,0.0212,0,-0.0342,-0.0347,-0.0346,-0.0335,-0.0309,-0.0306,-0.0247,-0.0217,-0.0176,-0.0127,-0.0057,0.0024,0.0088,0.0114,0.0149,0.0205,0.022,0.024,0.0254,0.0263,0.0311,0.0322,0.0209,0.021,0.021,0.0211,0,0,-0.038,-0.0382,-0.0382,-0.0404,-0.0357,-0.0344,-0.0316,-0.0271,-0.025,-0.0169,-0.0129,-0.0035,0.0028,0.0065,0.0131,0.0191,0.0256,0.0223,0.0228,0.0261,0.0384,0.0349,0.0357,0.0287,0.0289,0.029,0.0404,0,-0.044,-0.0495,-0.0457,-0.0497,-0.0523,-0.045,-0.0429,-0.0368,-0.0299,-0.0237,-0.0121,-0.0058,0.0006,0.0044,0.0117,0.0227,0.0282,0.0222,0.0377,0.0381,0.0343,0.0367,0.0295,0.0412,0.0415,0.0416,0.0418,0,-0.0493,-0.0527,-0.0592,-0.0599,-0.0597,-0.0599,-0.0548,-0.0519,-0.0401,-0.0338,-0.0233,-0.0135,-0.0012,0.0029,0.0222,0.0181,0.0271,0.0351,0.0358,0.0345,0.0365,0.0405,0.0437,0.0436,0.0434,0.0433,0.0432,0,-0.0572,-0.0611,-0.0676,-0.068,-0.0673,-0.0674,-0.0654,-0.0558,-0.0524,-0.0396,-0.0344,-0.0181,-0.0089,0.0051,0.0238,0.023,0.044,0.045,0.05,0.0499,0.0514,0.0509,0.0562,0.0562,0.0562,0.0562,0.0561,0,-0.065,-0.0698,-0.0728,-0.0765,-0.0819,-0.0764,-0.0776,-0.0718,-0.0623,-0.0574,-0.0404,-0.0317,-0.0078,0.0083,0.0227,0.0404,0.0438,0.0498,0.0528,0.0494,0.0485,0.0522,0.0515,0.0566,0.0565,0.0564,0.0563,0,-0.0724,-0.0751,-0.083,-0.0856,-0.0869,-0.0902,-0.0878,-0.087,-0.0761,-0.0689,-0.0647,-0.0406,-0.0186,0.004,0.0289,0.0385,0.0553,0.0599,0.0543,0.0568,0.0569,0.0559,0.0658,0.0657,0.0657,0.0657,0.0657,0,-0.077,-0.0826,-0.0907,-0.0963,-0.0984,-0.1022,-0.104,-0.0957,-0.0921,-0.0739,-0.0697,-0.0465,-0.0293,0.0051,0.0273,0.0542,0.0568,0.064,0.0603,0.056,0.058,0.0571,0.0562,0.0657,0.0656,0.0656,0.0656,0,-0.0851,-0.0883,-0.0946,-0.1063,-0.112,-0.1168,-0.117,-0.115,-0.1023,-0.0938,-0.0717,-0.05,-0.0249,0.0038,0.0256,0.0443,0.0589,0.0639,0.064,0.0606,0.056,0.0578,0.057,0.0656,0.0656,0.0656,0.0656,0,-0.0897,-0.0962,-0.1048,-0.1137,-0.1225,-0.1264,-0.1262,-0.1181,-0.112,-0.0893,-0.0829,-0.0519,-0.0321,-0.0014,0.0185,0.0373,0.0403,0.0432,0.0445,0.0448,0.0349,0.0259,0.0289,0,0,0,0,0,-0.0932,-0.1007,-0.1109,-0.12,-0.1284,-0.1319,-0.1318,-0.1282,-0.1162,-0.1025,-0.0913,-0.067,-0.031,-0.0127,0.0051,0.0138,0.0401,0.0347,0.0431,0.0652,0.0652,0.0569,0,0,0,0,0,0,-0.0962,-0.1069,-0.1115,-0.1222,-0.1285,-0.1355,-0.1356,-0.1283,-0.1172,-0.1026,-0.0821,-0.0668,-0.0311,-0.0414,0.0045,0.0108,0.0174,0.0537,0.054,0.0651,0.0652,0.0653,0.0567,0,0,0,0,0]}]]